Helicity
83 -141 -200 -125 14 67 -42 -15 69 75 122 207 122 181 181 136 157 105 79 60 38 31 55 94 121 119 108 89 80 54 57 32 72 71 81 58 45 34 29 25 34 44 22 37
148 -197 -126 45 35 41 127 45 -12 63 181 230 179 136 156 123 136 112 75 35 48 41 94 156 173 157 146 127 76 56 69 67 62 65 68 62 68 63 68 104 88 57 58 50
133 72 -50 22 39 13 89 59 59 35 203 227 223 139 127 24 -10 32 56 53 72 151 155 153 191 183 137 103 95 85 56 21 9 45 22 13 13 19 41 74 97 99 97 100
201 116 -2 71 76 57 83 67 72 106 174 238 243 141 89 75 15 34 63 72 90 150 160 208 205 156 143 90 42 24 -21 -28 -19 24 23 34 33 26 14 41 100 106 88 88
266 191 48 67 7 26 39 62 69 88 109 330 273 257 61 205 62 41 142 110 109 177 212 214 212 190 140 95 39 -20 -40 -35 -21 1 7 9 5 4 12 14 98 94 75 76
132 233 91 -1 21 17 37 21 75 66 170 155 265 230 181 218 194 137 114 125 188 232 258 238 216 170 122 86 75 22 6 -19 -3 5 12 45 18 44 50 51 50 54 67 55
179 179 182 57 -0 5 30 76 104 108 174 141 141 218 100 151 210 204 243 201 260 302 315 314 281 219 149 124 116 94 74 30 15 28 37 51 81 100 106 74 56 54 84 85
157 85 63 116 30 -68 -10 88 123 159 158 132 169 247 99 131 138 200 153 230 310 354 332 378 378 348 240 180 176 195 138 78 77 73 63 86 110 102 78 87 62 63 73 82
173 91 124 41 44 -30 -1 55 54 174 103 136 161 164 106 51 83 158 197 159 193 308 362 349 384 418 349 232 212 263 220 196 187 137 128 136 129 116 95 62 88 74 55 71
130 114 92 65 66 70 80 19 92 136 185 137 145 153 115 124 25 182 201 121 131 228 280 314 358 397 447 379 292 253 249 247 268 243 214 203 166 157 101 105 92 98 75 82
188 134 116 93 111 34 117 126 146 79 127 161 113 80 55 32 54 179 103 88 88 183 234 316 353 377 479 416 382 341 314 310 298 320 336 283 248 230 172 153 113 91 98 80
152 120 74 99 83 81 41 112 100 134 125 148 125 70 56 46 84 134 78 82 62 134 221 286 322 322 399 471 502 462 435 412 355 363 399 362 310 273 231 153 100 90 75 72
221 174 128 139 67 53 53 55 78 139 223 207 161 126 118 107 62 58 142 91 85 72 148 253 245 271 325 437 535 567 529 538 500 471 428 427 342 305 263 186 112 82 78 68
289 217 156 104 49 68 65 60 127 170 236 178 177 191 174 102 80 26 -27 108 137 110 145 196 188 212 277 377 509 559 515 546 578 564 506 494 445 318 255 169 111 92 84 85
287 182 161 61 84 94 96 75 126 166 192 197 173 175 153 81 98 73 78 48 128 115 89 120 136 151 201 298 436 472 458 563 680 641 567 541 441 312 195 182 138 107 90 75
140 178 199 89 81 100 69 84 84 128 221 258 214 201 97 81 193 146 98 133 136 164 119 71 57 120 181 292 434 445 472 486 588 689 593 695 496 255 144 161 111 108 79 75
87 116 216 43 89 116 136 60 116 231 201 273 235 101 161 161 128 96 116 201 221 146 125 65 120 112 150 232 347 427 459 487 517 539 772 638 545 310 168 220 106 135 98 80
89 140 190 102 174 106 101 144 174 223 286 313 150 135 109 109 142 186 284 332 236 202 146 99 36 29 76 175 273 387 466 510 492 494 665 746 513 284 217 157 122 60 103 112
-21 75 178 164 152 137 264 350 320 303 167 127 184 88 79 151 340 370 292 239 229 175 126 107 49 41 39 121 232 372 452 484 445 457 625 613 384 260 177 131 80 57 112 149
25 25 113 232 213 182 367 360 378 368 290 231 182 94 77 131 194 351 354 210 148 133 115 113 52 69 49 68 218 371 450 492 417 447 403 357 283 195 136 65 31 80 147 130
59 138 174 218 296 283 347 368 250 348 261 267 193 168 252 341 358 416 261 265 185 162 126 124 69 30 37 102 232 318 385 344 354 428 407 356 291 240 203 70 26 7 64 114
34 107 139 244 350 444 416 432 418 315 352 330 354 461 452 362 346 368 389 339 297 239 171 113 72 37 72 146 312 351 372 380 395 401 395 373 348 306 231 158 140 360 75 -16
150 49 54 143 163 253 433 438 326 332 370 362 401 377 360 432 414 375 356 234 261 288 203 35 30 43 134 248 375 418 375 408 387 413 388 323 273 257 65 93 72 174 155 192
233 56 7 84 94 121 209 277 299 287 333 345 369 368 392 384 393 231 161 257 246 135 99 66 136 33 158 357 402 426 458 439 436 365 288 217 124 93 116 135 111 207 187 143
152 143 73 131 189 127 191 191 174 199 155 176 166 173 217 211 240 252 134 27 9 -23 11 -61 -21 114 254 380 404 433 380 308 284 182 197 233 117 46 93 253 212 123 139 103
149 86 189 178 149 169 243 266 184 176 150 154 99 119 108 136 221 177 151 139 179 179 87 70 84 144 217 294 259 160 136 105 156 122 84 103 245 131 47 179 137 181 171 135
Wind_Speed
37 28 60 60 16 18 67 26 53 50 28 4 28 14 30 38 38 39 40 43 46 50 47 44 45 44 43 43 44 47 44 42 38 35 31 28 27 22 20 21 19 16 15 14
42 81 69 50 31 17 35 24 55 55 21 32 11 4 19 29 37 38 37 39 41 39 38 40 42 44 44 46 47 45 45 43 39 34 29 22 20 18 17 18 16 16 17 18
43 54 42 47 33 19 27 37 14 18 20 34 16 34 3 17 15 28 21 29 31 33 36 33 40 42 43 44 46 44 45 43 38 33 24 21 25 27 25 21 20 19 20 20
65 84 53 51 53 37 66 37 37 16 22 23 21 26 24 13 18 18 17 26 30 33 33 35 36 39 38 41 42 41 43 40 33 25 20 19 21 23 24 24 21 20 21 22
57 59 58 52 38 30 62 29 41 28 25 32 20 33 47 20 34 49 35 28 26 27 35 38 36 37 35 30 34 35 34 31 22 18 15 16 18 21 24 26 25 24 25 25
73 62 63 67 65 39 47 47 48 47 30 35 27 26 25 24 49 52 41 43 28 29 36 36 35 28 25 22 25 26 27 24 18 13 10 10 13 19 20 21 21 25 27 27
71 77 68 61 79 54 53 49 55 53 45 58 21 23 22 39 52 53 50 47 41 34 36 34 31 30 28 30 27 24 24 24 21 17 13 10 9 14 16 15 16 22 26 28
77 85 72 60 69 59 53 48 49 50 53 56 32 28 26 50 52 54 53 47 42 41 47 45 39 32 32 33 33 33 36 33 28 25 22 14 9 10 12 13 14 17 21 24
77 90 66 71 66 57 61 63 48 64 51 50 46 50 63 39 14 27 39 34 46 45 42 44 44 48 47 41 42 41 38 34 33 31 24 17 8 6 9 10 14 16 18 21
76 74 73 74 69 72 68 48 58 54 64 72 59 51 44 34 29 12 28 44 45 40 35 35 44 46 47 50 46 39 37 35 32 29 25 18 12 4 1 5 7 11 16 18
78 77 74 62 76 77 62 65 59 58 60 63 72 65 36 44 41 10 31 45 46 43 40 41 42 45 52 52 45 42 38 33 31 30 26 22 15 9 5 4 5 9 13 18
82 81 96 94 64 63 62 76 70 73 68 59 60 63 38 37 38 13 28 31 33 37 38 31 37 43 43 47 42 44 41 40 37 32 29 27 19 13 10 9 7 9 11 16
69 84 90 91 83 75 76 69 66 62 56 59 58 58 45 36 28 10 19 26 30 39 30 27 34 41 43 40 38 38 37 40 35 34 35 29 25 19 16 13 9 8 10 12
65 74 91 98 83 65 69 69 61 56 64 57 58 50 40 35 26 19 21 20 27 36 37 30 28 35 38 35 30 28 35 36 35 35 37 36 33 27 20 16 12 13 11 13
71 82 82 101 92 75 69 71 61 63 58 59 51 46 41 28 22 20 22 20 21 28 33 28 28 26 25 25 22 24 28 30 36 40 40 42 36 28 21 18 16 16 16 16
56 75 79 93 89 81 83 87 74 71 59 51 51 50 35 24 25 20 21 23 23 23 31 27 20 13 16 19 21 24 27 31 27 36 47 34 33 29 24 21 18 15 20 14
45 64 68 91 79 75 82 75 62 55 55 53 57 51 38 28 24 24 28 28 30 26 20 17 15 12 13 14 17 21 25 24 30 37 30 36 35 34 24 25 20 20 19 18
50 56 63 76 66 84 70 57 40 33 41 45 44 40 26 19 26 28 30 31 26 18 12 8 5 4 6 15 16 19 19 22 29 32 29 33 33 29 22 22 24 22 25 24
47 44 55 66 69 56 51 44 41 34 32 37 42 43 50 39 36 47 23 18 18 14 9 6 7 16 21 21 22 22 21 19 21 27 27 27 27 23 20 21 23 25 28 33
35 33 48 54 58 62 58 53 49 56 52 49 43 46 30 25 30 30 24 21 17 14 11 12 21 29 33 36 31 27 25 19 20 22 21 20 21 23 22 22 25 31 28 41
43 38 37 47 49 44 43 47 36 42 43 39 32 30 16 24 20 13 10 13 19 25 27 35 38 41 43 43 41 30 25 22 22 19 16 17 21 26 24 27 29 34 40 46
40 35 39 36 43 47 44 38 48 35 22 11 13 11 5 8 12 13 16 20 27 34 42 53 57 54 49 49 36 33 33 26 20 14 13 16 20 22 18 19 25 34 58 28
59 36 41 38 31 31 31 13 15 15 4 8 10 13 12 13 19 23 30 35 44 55 54 57 62 74 61 40 36 36 31 22 16 13 15 17 23 24 19 18 31 41 25 31
51 53 33 35 22 19 11 8 12 14 12 15 18 18 18 21 28 35 48 54 56 58 64 68 63 61 56 40 38 28 23 15 12 14 16 19 18 18 30 28 23 20 29 25
44 45 39 37 32 27 17 15 15 21 22 26 27 33 38 40 46 49 64 74 68 66 67 70 59 55 51 37 27 25 23 12 12 13 18 20 26 37 34 24 28 31 32 32
40 47 49 47 41 30 35 35 29 25 29 30 37 40 41 43 49 51 51 51 51 51 35 39 42 41 31 21 18 16 18 21 17 17 16 23 23 25 29 25 29 31 32 32
Wind_Direction
237 205 173 171 251 269 164 172 165 169 262 203 144 82 128 139 144 146 152 158 163 169 166 161 161 159 156 158 160 164 162 164 155 153 151 154 163 154 152 159 152 138 132 83
237 189 192 239 251 259 241 256 179 248 267 266 301 72 128 141 149 148 149 155 160 162 158 158 159 160 160 161 163 161 164 162 156 146 134 104 98 105 92 59 74 74 72 59
221 235 236 241 246 241 257 257 277 194 257 277 284 283 234 163 147 158 154 164 163 161 160 158 158 161 161 161 161 160 160 157 149 141 111 67 35 32 40 49 51 65 68 57
244 232 240 241 246 249 241 260 273 298 176 181 261 182 187 211 187 182 183 172 173 168 165 162 161 162 162 163 160 158 158 153 147 129 103 84 72 63 50 42 53 65 57 47
240 236 234 239 237 247 245 266 274 290 185 267 194 280 203 191 187 197 191 188 184 180 173 168 169 164 163 158 157 157 156 154 141 130 105 78 54 42 34 35 54 48 40 36
242 246 242 243 243 250 255 266 278 286 278 200 199 198 281 180 195 202 195 191 189 187 184 178 174 171 167 166 164 162 163 164 158 147 126 94 39 33 35 38 44 35 33 29
242 242 245 245 241 249 253 259 266 271 273 265 222 215 224 189 198 200 192 189 184 181 183 187 183 180 176 173 179 181 179 180 175 169 157 132 73 45 42 46 42 35 30 27
240 239 239 239 241 245 249 251 259 270 274 273 284 257 215 206 206 202 198 190 181 180 181 183 187 191 189 181 180 180 180 183 181 177 170 150 108 66 53 55 41 36 34 35
240 243 245 243 244 245 248 253 266 270 279 279 277 281 275 287 212 198 194 189 187 184 184 185 183 185 185 186 186 186 186 186 185 184 179 172 149 87 37 56 42 38 30 29
246 248 245 245 245 248 248 255 261 268 265 269 276 282 284 291 297 251 193 185 186 184 184 184 185 186 188 191 193 193 195 196 193 193 195 194 194 201 28 14 16 20 15 15
242 245 244 243 241 241 247 251 259 268 269 268 276 275 285 291 297 237 181 180 181 178 178 179 183 185 188 191 192 195 199 202 204 204 208 209 215 225 256 306 346 360 4 3
240 244 242 241 246 249 251 253 257 260 265 272 272 272 289 288 305 214 179 180 179 177 178 184 187 189 189 193 195 197 199 203 207 211 212 213 219 227 250 280 301 333 346 354
237 240 240 244 246 247 247 253 259 263 265 262 264 274 281 288 292 218 189 182 182 185 189 192 187 191 196 200 202 204 207 208 209 211 211 215 218 228 246 250 275 302 330 346
234 241 239 240 241 241 246 252 260 256 254 262 267 273 280 281 271 267 194 201 188 184 186 189 189 193 199 203 211 214 214 215 217 219 217 217 220 230 240 242 250 284 306 326
235 242 242 241 243 244 249 256 264 254 253 255 266 268 270 266 250 220 196 200 199 186 183 189 195 201 207 213 227 229 224 221 224 226 224 221 227 233 237 234 257 275 292 305
245 244 242 243 243 244 249 257 262 260 253 260 266 268 270 258 272 244 205 199 204 199 183 185 196 229 225 239 234 226 231 228 229 229 228 236 257 263 244 247 256 264 285 280
264 246 242 243 242 244 246 254 265 257 253 257 262 269 276 261 240 222 207 203 198 192 192 197 210 225 238 254 273 250 241 242 237 236 240 243 233 218 234 261 249 273 275 288
269 257 246 243 240 243 250 258 255 257 258 259 269 275 269 241 220 247 258 194 192 200 212 232 247 260 271 311 300 292 274 252 256 254 253 244 238 234 265 260 263 269 286 289
266 264 245 240 238 248 247 250 254 250 268 271 271 282 273 285 276 266 257 233 203 208 229 261 311 332 337 330 322 314 299 275 259 258 258 247 245 245 274 261 260 270 286 293
280 280 248 242 236 245 244 258 267 267 258 275 276 272 287 281 263 264 265 262 262 274 278 288 309 320 329 332 327 324 312 293 265 266 269 258 263 282 277 275 287 294 291 292
268 268 258 250 244 250 260 264 266 256 266 278 269 272 282 288 292 300 278 282 290 293 295 303 309 315 319 326 327 327 325 309 304 300 288 279 283 296 293 295 310 319 312 294
272 265 268 261 249 248 279 263 255 263 271 295 295 310 350 4 7 350 326 311 307 302 303 304 304 310 313 317 322 326 324 327 321 311 302 299 305 308 302 302 315 342 336 248
247 269 259 264 247 263 261 263 269 270 320 353 11 346 339 335 330 330 319 313 310 305 308 308 309 304 313 310 305 313 322 329 333 322 309 304 319 320 321 330 317 326 323 315
247 247 262 256 265 259 272 296 296 303 319 332 338 339 340 323 317 311 308 308 308 310 304 307 316 317 316 312 301 309 314 327 349 340 338 332 336 334 318 317 319 323 321 318
261 249 249 255 251 248 275 290 304 302 308 317 324 318 312 310 310 303 302 300 300 303 308 310 325 323 317 322 323 328 331 328 349 358 348 344 329 329 329 330 331 320 328 325
270 258 251 254 251 267 259 271 279 294 308 314 318 311 311 317 321 314 312 311 313 316 325 331 334 328 328 331 340 342 348 354 7 359 346 333 320 322 322 328 337 345 334 336